Location: De Greiden
(52.9496°N, 5.9137°E)
Time: 02:10:26
(UTC+00:00)

Aureole 2 Rocket - Pass Details

Date: 24 January 2021
Orbit: 285 x 374 km, 73.9° (Epoch: 26 February)

Event Time Altitude Azimuth Distance (km) Brightness Sun altitude
Rises 17:58:44 0° 221° (SW) 2,253 6.8 -16.6°
Reaches altitude 10° 18:00:46 10° 228° (SW) 1,418 5.8 -16.9°
Maximum altitude 18:03:45 41° 301° (WNW) 585 3.3 -17.3°
Enters shadow 18:05:46 18° 6° (N) 1,058 4.1 -17.6°
